TimeEDT,TemperatureF,Dew PointF,Humidity,Sea Level PressureIn,VisibilityMPH,Wind Direction,Wind SpeedMPH,Gust SpeedMPH,PrecipitationIn,Events,Conditions,WindDirDegrees,DateUTC
12:00 AM,77.0,73.4,89,30.11,6.2,Calm,Calm,-,N/A,,Mostly Cloudy,0,2013-08-26 04:00:00
1:00 AM,78.8,73.4,83,30.10,6.2,ENE,3.5,-,N/A,,Mostly Cloudy,60,2013-08-26 05:00:00
2:00 AM,80,77,86,30.08,9,NE,3.5,,,,Partly Cloudy,40,2013-08-26 06:00:00
2:00 AM,78.8,77.0,94,30.08,6.2,NE,3.5,-,N/A,,Mostly Cloudy,40,2013-08-26 06:00:00
4:00 AM,78.8,73.4,83,30.06,6.2,NE,3.5,-,N/A,,Mostly Cloudy,40,2013-08-26 08:00:00
5:00 AM,81,76,80,30.06,9,NE,3.5,,,,Partly Cloudy,40,2013-08-26 09:00:00
5:00 AM,80.6,75.2,84,30.05,6.2,NE,3.5,-,N/A,,Mostly Cloudy,40,2013-08-26 09:00:00
6:00 AM,80.6,71.6,74,30.06,6.2,SE,4.6,-,N/A,,Mostly Cloudy,130,2013-08-26 10:00:00
7:00 AM,78.8,73.4,83,30.05,6.2,Calm,Calm,-,N/A,,Mostly Cloudy,0,2013-08-26 11:00:00
8:00 AM,81,78,88,30.06,9,Calm,Calm,,,,Partly Cloudy,,2013-08-26 12:00:00
8:00 AM,80.6,78.8,94,30.05,6.2,Calm,Calm,-,N/A,,Mostly Cloudy,0,2013-08-26 12:00:00
9:00 AM,82.4,75.2,79,30.06,6.2,ESE,3.5,-,N/A,,Mostly Cloudy,110,2013-08-26 13:00:00
10:00 AM,84.2,75.2,74,30.08,6.2,ESE,3.5,-,N/A,,Mostly Cloudy,120,2013-08-26 14:00:00
10:30 AM,84.2,75.2,74,30.09,6.2,ENE,3.5,-,N/A,Thunderstorm,Light Thunderstorm,70,2013-08-26 14:30:00
11:00 AM,87,78,69,30.10,4,East,9.2,,,Rain-Thunderstorm,Thunderstorms and Rain,100,2013-08-26 15:00:00
11:00 AM,87.8,78.8,75,30.10,5.0,East,9.2,-,N/A,,Overcast,100,2013-08-26 15:00:00
1:00 PM,73.4,69.8,88,30.10,5.0,East,3.5,-,N/A,Rain-Thunderstorm,Light Thunderstorms and Rain,90,2013-08-26 17:00:00
2:00 PM,75,72,89,30.12,7,SSE,6.7,,,Rain-Thunderstorm,Thunderstorms and Rain,160,2013-08-26 18:00:00
2:00 PM,75.2,71.6,89,30.11,6.2,SSE,3.5,-,N/A,Rain-Thunderstorm,Light Thunderstorms and Rain,160,2013-08-26 18:00:00
3:00 PM,75.2,73.4,94,-9999,5.6,Calm,Calm,-,N/A,Rain-Thunderstorm,Light Thunderstorms and Rain,0,2013-08-26 19:00:00
4:00 PM,73.4,69.8,88,-9999,5.6,South,6.9,-,N/A,Rain-Thunderstorm,Light Thunderstorms and Rain,180,2013-08-26 20:00:00
5:00 PM,75,73,90,30.07,6,South,2.3,,,Rain,Light Rain,180,2013-08-26 21:00:00
5:00 PM,75.2,73.4,94,30.07,5.6,South,2.3,-,N/A,Rain,Light Rain,180,2013-08-26 21:00:00
6:00 PM,73.4,68.0,83,30.01,6.2,SSW,3.5,-,N/A,Rain,Light Rain,200,2013-08-26 22:00:00
7:00 PM,73.4,69.8,88,30.02,6.2,East,2.3,-,N/A,,Overcast,90,2013-08-26 23:00:00
8:00 PM,77,72,80,30.03,7,NE,4.6,,,Rain,Light Rain,50,2013-08-27 00:00:00
8:00 PM,77.0,71.6,83,30.03,6.2,NE,4.6,-,N/A,Rain,Light Rain,50,2013-08-27 00:00:00
9:00 PM,77.0,71.6,83,30.05,6.2,ENE,3.5,-,N/A,Rain,Light Rain,70,2013-08-27 01:00:00
10:00 PM,78.8,73.4,83,30.04,6.2,East,3.5,-,N/A,,Mostly Cloudy,90,2013-08-27 02:00:00
11:00 PM,78,76,91,30.05,7,,2.3,,,,Partly Cloudy,,2013-08-27 03:00:00
11:00 PM,78.8,75.2,89,30.04,6.2,Variable,2.3,-,N/A,,Mostly Cloudy,0,2013-08-27 03:00:00